JQ1YUX-13 Tokyo Ota-ku JP current weather conditions

sailwx.info

Wind from 176

Air temperature 20.6° C
Dewpoint 19.4° C

Last reported at 2014-Oct-21 09:22 UTC.
Time now 2014-Oct-21 10:32 UTC

Location: N 35°35' E 139°40'.
View on Google Maps.

See reports from other nearby stations

  
Tides and Currents Weather Stations Pressure Air Temp Water Temp Dewpoint Dewpoint Depression Visibility Wind Speed Wind Dir Waves Ship Positions
date/time (UTC)wind fromknots sea level pressurealtimeterstation pressurevisibilityair tempwater tempwave heightnotes
2014-Oct-21 09:22 176 20.6
2014-Oct-21 08:52 245 0 gusting 4 20.6
2014-Oct-21 08:22 169 20.6
2014-Oct-21 07:52 200 21.1
2014-Oct-21 07:22 194 0 gusting 5 21.1
2014-Oct-21 06:52 167 21.1
2014-Oct-21 06:22 200 20.0
2014-Oct-21 05:52 229 20.6
2014-Oct-21 05:22 153 1 gusting 5 20.6
2014-Oct-21 04:52 148 3 gusting 6 20.0
2014-Oct-21 04:22 206 3 gusting 7 18.9
2014-Oct-21 03:52 198 4 gusting 6 18.9
2014-Oct-21 03:22 148 2 gusting 6 19.4
2014-Oct-21 02:52 227 3 gusting 6 19.4
2014-Oct-21 02:22 195 0 gusting 4 18.9
2014-Oct-21 01:52 158 2 gusting 5 18.9
2014-Oct-21 01:22 321 17.8
2014-Oct-21 00:52 320 17.2
2014-Oct-21 00:22 321 17.2
2014-Oct-20 23:52 321 16.7
2014-Oct-20 23:22 321 16.7
2014-Oct-20 22:52 326 16.7
2014-Oct-20 22:22 326 16.7
2014-Oct-20 21:52 326 16.1
2014-Oct-20 21:22 326 16.1
2014-Oct-20 20:52 326 16.1
2014-Oct-20 20:22 327 16.1
2014-Oct-20 19:52 326 16.1
2014-Oct-20 19:22 326 16.1
2014-Oct-20 18:52 327 16.1
2014-Oct-20 18:22 326 16.1
2014-Oct-20 17:52 336 16.1
2014-Oct-20 17:22 336 16.1
2014-Oct-20 16:52 336 16.1
2014-Oct-20 16:22 284 16.7
2014-Oct-20 15:52 281 16.7
2014-Oct-20 15:22 338 0 gusting 5 16.7
2014-Oct-20 14:52 344 16.7
2014-Oct-20 14:22 026 16.7
2014-Oct-20 13:52 336 16.7
2014-Oct-20 13:22 005 16.7
2014-Oct-20 12:52 340 17.2
2014-Oct-20 12:22 305 17.2
2014-Oct-20 11:52 317 17.2
2014-Oct-20 11:22 292 17.8
2014-Oct-20 10:52 005 18.3
2014-Oct-20 10:22 036 19.4
2014-Oct-20 09:52 222 21.1
2014-Oct-20 09:22 222 21.1
2014-Oct-20 08:52 222 21.1
2014-Oct-20 08:22 208 20.6
2014-Oct-20 07:52 208 21.1
2014-Oct-20 07:22 221 2 gusting 6 21.1
2014-Oct-20 06:52 233 21.7
2014-Oct-20 06:22 207 0 gusting 5 21.7
2014-Oct-20 05:52 196 3 gusting 6 22.2
2014-Oct-20 05:22 228 6 gusting 11 22.8
2014-Oct-20 04:52 196 4 gusting 6 23.3
2014-Oct-20 04:22 182 1 gusting 8 23.3
2014-Oct-20 03:52 183 2 gusting 6 23.3
2014-Oct-20 03:22 212 4 gusting 7 23.9
2014-Oct-20 02:52 208 3 gusting 6 23.3
2014-Oct-20 02:22 190 4 gusting 6 23.3
2014-Oct-20 01:52 172 23.3
2014-Oct-20 01:22 178 21.7
2014-Oct-20 00:52 292 20.6
2014-Oct-20 00:22 293 20.0
2014-Oct-19 23:52 314 18.3
2014-Oct-19 23:22 314 16.7
2014-Oct-19 22:52 325 16.7
2014-Oct-19 22:22 307 15.6
2014-Oct-19 21:52 322 15.0
2014-Oct-19 21:22 323 15.0
2014-Oct-19 20:52 322 15.0
2014-Oct-19 20:22 322 15.0
2014-Oct-19 19:52 286 15.0
2014-Oct-19 19:22 170 15.0
2014-Oct-19 18:52 170 15.6
2014-Oct-19 18:22 171 16.1
2014-Oct-19 17:52 169 16.1
2014-Oct-19 17:22 170 16.1
2014-Oct-19 16:52 169 16.7
2014-Oct-19 16:22 170 17.2
2014-Oct-19 15:52 170 16.7
2014-Oct-19 15:22 170 17.2
2014-Oct-19 14:52 169 16.7
2014-Oct-19 14:22 170 16.1
2014-Oct-19 13:52 171 16.1
2014-Oct-19 13:22 169 16.7
2014-Oct-19 12:52 169 17.2
2014-Oct-19 12:22 171 17.2
2014-Oct-19 11:52 170 17.8
2014-Oct-19 11:22 169 18.3
2014-Oct-19 10:52 171 18.9
2014-Oct-19 10:22 170 19.4